Terug naar catalogus

COSMOS 1188 DEB

LostHEO
NORAD 26675·DEBRIS·🇷🇺 Russia

Gelanceerd Jun 14, 1980 vanaf Plesetsk Cosmodrome

Loading…

Volgende Passages (komende 24 uur)

TLE

VerouderdSource: Space-Track

Epoch: Jan 31, 2024, 20:30 UTC

1 26675U 80050E   24031.85460483 -.00000154  00000-0  00000+0 0  9997
2 26675  72.0764 202.7279 5546599 215.0390  91.2186  1.94412480211976

Volg COSMOS 1188 DEB in realtime met AllMySat

Download on the App Store